Year,Month,Day,Hour,Minute,Value (Times are PST for temperature in C)
2015,11,18,00,00,3.60
2015,11,18,00,01,3.50
2015,11,18,00,02,3.50
2015,11,18,00,03,3.50
2015,11,18,00,04,3.40
2015,11,18,00,05,3.30
2015,11,18,00,06,3.30
2015,11,18,00,07,3.20
2015,11,18,00,08,3.20
2015,11,18,00,09,3.10
2015,11,18,00,10,3.10
2015,11,18,00,11,3.00
2015,11,18,00,12,2.90
2015,11,18,00,13,2.90
2015,11,18,00,14,2.80
2015,11,18,00,15,2.70
2015,11,18,00,16,2.70
2015,11,18,00,17,2.60
2015,11,18,00,18,2.50
2015,11,18,00,19,2.50
2015,11,18,00,20,2.40
2015,11,18,00,21,2.30
2015,11,18,00,22,2.30
2015,11,18,00,23,2.20
2015,11,18,00,24,2.20
2015,11,18,00,25,2.10
2015,11,18,00,26,2.10
2015,11,18,00,27,2.00
2015,11,18,00,28,1.90
2015,11,18,00,29,1.90
2015,11,18,00,30,1.90
2015,11,18,00,31,1.80
2015,11,18,00,32,1.80
2015,11,18,00,33,1.70
2015,11,18,00,34,1.70
2015,11,18,00,35,1.70
2015,11,18,00,36,1.60
2015,11,18,00,37,1.60
2015,11,18,00,38,1.50
2015,11,18,00,39,1.40
2015,11,18,00,40,1.40
2015,11,18,00,41,1.30
2015,11,18,00,42,1.30
2015,11,18,00,43,1.30
2015,11,18,00,44,1.30
2015,11,18,00,45,1.30
2015,11,18,00,46,1.30
2015,11,18,00,47,1.30
2015,11,18,00,48,1.20
2015,11,18,00,49,1.20
2015,11,18,00,50,1.20
2015,11,18,00,51,1.10
2015,11,18,00,52,1.10
2015,11,18,00,53,1.10
2015,11,18,00,54,1.00
2015,11,18,00,55,1.00
2015,11,18,00,56,1.00
2015,11,18,00,57,0.90
2015,11,18,00,58,0.90
2015,11,18,00,59,0.90
2015,11,18,01,00,0.80
2015,11,18,01,01,0.80
2015,11,18,01,02,0.80
2015,11,18,01,03,0.80
2015,11,18,01,04,0.80
2015,11,18,01,05,0.80
2015,11,18,01,06,0.80
2015,11,18,01,07,0.80
2015,11,18,01,08,0.80
2015,11,18,01,09,0.80
2015,11,18,01,10,0.80
2015,11,18,01,11,0.80
2015,11,18,01,12,0.80
2015,11,18,01,13,0.80
2015,11,18,02,37,0.80
2015,11,18,02,38,0.80
2015,11,18,02,39,0.80
2015,11,18,02,40,0.80
2015,11,18,02,41,0.80
2015,11,18,02,42,0.80
2015,11,18,02,43,0.80
2015,11,18,02,44,0.80
2015,11,18,02,45,0.80
2015,11,18,02,46,0.80
2015,11,18,02,47,0.80
2015,11,18,02,48,0.70
2015,11,18,02,49,0.70
2015,11,18,02,50,0.70
2015,11,18,02,51,0.70
2015,11,18,02,52,0.70
2015,11,18,02,53,0.70
2015,11,18,02,54,0.70
2015,11,18,02,55,0.70
2015,11,18,02,56,0.70
2015,11,18,02,57,0.70
2015,11,18,02,58,0.70
2015,11,18,02,59,0.70
2015,11,18,03,00,0.60
2015,11,18,03,01,0.60
2015,11,18,03,02,0.60
2015,11,18,03,03,0.60
2015,11,18,03,04,0.60
2015,11,18,03,05,0.60
2015,11,18,03,06,0.50
2015,11,18,03,07,0.50
2015,11,18,03,08,0.50
2015,11,18,03,09,0.50
2015,11,18,03,10,0.40
2015,11,18,03,11,0.40
2015,11,18,03,12,0.40
2015,11,18,03,13,0.40
2015,11,18,03,14,0.40
2015,11,18,03,15,0.40
2015,11,18,03,16,0.40
2015,11,18,03,17,0.40
2015,11,18,03,18,0.30
2015,11,18,03,19,0.30
2015,11,18,03,20,0.30
2015,11,18,03,21,0.30
2015,11,18,03,22,0.30
2015,11,18,03,23,0.30
2015,11,18,03,24,0.30
2015,11,18,03,25,0.30
2015,11,18,03,26,0.30
2015,11,18,03,27,0.30
2015,11,18,03,28,0.30
2015,11,18,03,29,0.30
2015,11,18,03,30,0.20
2015,11,18,03,31,0.20
2015,11,18,03,32,0.20
2015,11,18,03,33,0.20
2015,11,18,03,34,0.20
2015,11,18,03,35,0.20
2015,11,18,03,36,0.20
2015,11,18,03,37,0.20
2015,11,18,03,38,0.20
2015,11,18,03,39,0.10
2015,11,18,03,40,0.10
2015,11,18,03,41,0.10
2015,11,18,03,42,0.10
2015,11,18,03,43,0.10
2015,11,18,03,44,0.10
2015,11,18,03,45,0.10
2015,11,18,03,46,0.10
2015,11,18,03,47,0.10
2015,11,18,03,48,0.10
2015,11,18,03,49,0.00
2015,11,18,03,50,0.00
2015,11,18,03,51,0.00
2015,11,18,03,52,0.00
2015,11,18,03,53,0.00
2015,11,18,03,54,0.00
2015,11,18,03,55,-0.10
2015,11,18,03,56,-0.10
2015,11,18,03,57,-0.10
2015,11,18,03,58,-0.10
2015,11,18,03,59,-0.10
2015,11,18,04,00,-0.10
2015,11,18,04,01,0.00
2015,11,18,04,02,0.00
2015,11,18,04,03,0.00
2015,11,18,04,04,0.00
2015,11,18,04,05,0.00
2015,11,18,04,06,0.00
2015,11,18,04,07,0.00
2015,11,18,04,08,0.00
2015,11,18,04,09,0.00
2015,11,18,04,10,0.00
2015,11,18,04,11,-0.10
2015,11,18,04,12,-0.10
2015,11,18,04,13,-0.10
2015,11,18,04,14,-0.10
2015,11,18,04,15,-0.10
2015,11,18,04,16,-0.10
2015,11,18,04,17,-0.20
2015,11,18,04,18,-0.20
2015,11,18,04,19,-0.20
2015,11,18,04,20,-0.20
2015,11,18,04,21,-0.20
2015,11,18,04,22,-0.20
2015,11,18,04,23,-0.20
2015,11,18,04,24,-0.20
2015,11,18,04,25,-0.20
2015,11,18,04,26,-0.20
2015,11,18,04,27,-0.20
2015,11,18,04,28,-0.30
2015,11,18,04,29,-0.30
2015,11,18,04,30,-0.30
2015,11,18,04,31,-0.30
2015,11,18,04,32,-0.30
2015,11,18,04,33,-0.30
2015,11,18,04,34,-0.30
2015,11,18,04,35,-0.30
2015,11,18,04,36,-0.30
2015,11,18,04,37,-0.30
2015,11,18,04,38,-0.40
2015,11,18,04,39,-0.40
2015,11,18,04,40,-0.40
2015,11,18,04,41,-0.40
2015,11,18,04,42,-0.40
2015,11,18,04,43,-0.40
2015,11,18,04,44,-0.40
2015,11,18,04,45,-0.40
2015,11,18,04,46,-0.40
2015,11,18,04,47,-0.40
2015,11,18,04,48,-0.40
2015,11,18,04,49,-0.40
2015,11,18,04,50,-0.50
2015,11,18,04,51,-0.50
2015,11,18,04,52,-0.50
2015,11,18,04,53,-0.50
2015,11,18,04,54,-0.50
2015,11,18,04,55,-0.50
2015,11,18,04,56,-0.60
2015,11,18,04,57,-0.60
2015,11,18,04,58,-0.60
2015,11,18,04,59,-0.60
2015,11,18,05,00,-0.60
2015,11,18,05,01,-0.60
2015,11,18,05,02,-0.60
2015,11,18,05,03,-0.60
2015,11,18,05,04,-0.60
2015,11,18,05,05,-0.70
2015,11,18,05,06,-0.70
2015,11,18,05,07,-0.70
2015,11,18,05,08,-0.70
2015,11,18,05,09,-0.70
2015,11,18,05,10,-0.70
2015,11,18,05,11,-0.70
2015,11,18,05,12,-0.70
2015,11,18,05,13,-0.70
2015,11,18,05,14,-0.70
2015,11,18,05,15,-0.80
2015,11,18,05,16,-0.80
2015,11,18,05,17,-0.80
2015,11,18,05,18,-0.80
2015,11,18,05,19,-0.80
2015,11,18,05,20,-0.80
2015,11,18,05,21,-0.80
2015,11,18,05,22,-0.80
2015,11,18,05,23,-0.80
2015,11,18,05,24,-0.90
2015,11,18,05,25,-0.90
2015,11,18,05,26,-0.90
2015,11,18,05,27,-0.90
2015,11,18,05,28,-0.90
2015,11,18,05,29,-0.90
2015,11,18,05,30,-0.90
2015,11,18,05,31,-0.90
2015,11,18,05,32,-0.90
2015,11,18,05,33,-0.90
2015,11,18,05,34,-0.90
2015,11,18,05,35,-0.90
2015,11,18,05,36,-0.90
2015,11,18,05,37,-1.00
2015,11,18,05,38,-1.00
2015,11,18,05,39,-1.00
2015,11,18,05,40,-1.00
2015,11,18,05,41,-1.00
2015,11,18,05,42,-1.00
2015,11,18,05,43,-1.00
2015,11,18,05,44,-1.00
2015,11,18,05,45,-1.00
2015,11,18,05,46,-1.00
2015,11,18,05,47,-1.00
2015,11,18,05,48,-1.00
2015,11,18,05,49,-1.00
2015,11,18,05,50,-1.10
2015,11,18,05,51,-1.10
2015,11,18,05,52,-1.10
2015,11,18,05,53,-1.10
2015,11,18,05,54,-1.10
2015,11,18,05,55,-1.10
2015,11,18,05,56,-1.10
2015,11,18,05,57,-1.10
2015,11,18,05,58,-1.10
2015,11,18,05,59,-1.10
2015,11,18,06,00,-1.10
2015,11,18,06,01,-1.20
2015,11,18,06,02,-1.20
2015,11,18,06,03,-1.20
2015,11,18,06,04,-1.20
2015,11,18,06,05,-1.20
2015,11,18,06,06,-1.20
2015,11,18,06,07,-1.20
2015,11,18,06,08,-1.20
2015,11,18,06,09,-1.20
2015,11,18,06,10,-1.20
2015,11,18,06,11,-1.20
2015,11,18,06,12,-1.20
2015,11,18,06,13,-1.20
2015,11,18,06,14,-1.20
2015,11,18,06,15,-1.20
2015,11,18,06,16,-1.20
2015,11,18,06,17,-1.20
2015,11,18,06,18,-1.20
2015,11,18,06,19,-1.20
2015,11,18,06,20,-1.20
2015,11,18,06,21,-1.20
2015,11,18,06,22,-1.20
2015,11,18,06,23,-1.20
2015,11,18,06,24,-1.20
2015,11,18,06,25,-1.20
2015,11,18,06,26,-1.20
2015,11,18,06,27,-1.20
2015,11,18,06,28,-1.20
2015,11,18,06,29,-1.20
2015,11,18,06,30,-1.20
2015,11,18,06,31,-1.20
2015,11,18,06,32,-1.20
2015,11,18,06,33,-1.20
2015,11,18,06,34,-1.20
2015,11,18,06,35,-1.20
2015,11,18,06,36,-1.20
2015,11,18,06,37,-1.20
2015,11,18,06,38,-1.20
2015,11,18,06,39,-1.20
2015,11,18,06,40,-1.20
2015,11,18,06,41,-1.20
2015,11,18,06,42,-1.20
2015,11,18,06,43,-1.20
2015,11,18,06,44,-1.20
2015,11,18,06,45,-1.20
2015,11,18,06,46,-1.20
2015,11,18,06,47,-1.20
2015,11,18,06,48,-1.20
2015,11,18,06,49,-1.20
2015,11,18,06,50,-1.20
2015,11,18,06,51,-1.20
2015,11,18,06,52,-1.20
2015,11,18,06,53,-1.20
2015,11,18,06,54,-1.20
2015,11,18,06,55,-1.20
2015,11,18,06,56,-1.20
2015,11,18,06,57,-1.20
2015,11,18,06,58,-1.20
2015,11,18,06,59,-1.20
2015,11,18,07,00,-1.20
2015,11,18,07,01,-1.20
2015,11,18,07,02,-1.20
2015,11,18,07,03,-1.20
2015,11,18,07,04,-1.20
2015,11,18,07,05,-1.20
2015,11,18,07,06,-1.20
2015,11,18,07,07,-1.20
2015,11,18,07,08,-1.20
2015,11,18,07,09,-1.20
2015,11,18,07,10,-1.20
2015,11,18,07,11,-1.20
2015,11,18,07,12,-1.20
2015,11,18,07,13,-1.20
2015,11,18,07,14,-1.20
2015,11,18,07,15,-1.20
2015,11,18,07,16,-1.20
2015,11,18,07,17,-1.20
2015,11,18,07,18,-1.20
2015,11,18,07,19,-1.20
2015,11,18,07,20,-1.20
2015,11,18,07,21,-1.20
2015,11,18,07,22,-1.20
2015,11,18,07,23,-1.20
2015,11,18,07,24,-1.20
2015,11,18,07,25,-1.20
2015,11,18,07,26,-1.10
2015,11,18,07,27,-1.10
2015,11,18,07,28,-1.10
2015,11,18,07,29,-1.10
2015,11,18,07,30,-1.10
2015,11,18,07,31,-1.10
2015,11,18,07,32,-1.10
2015,11,18,07,33,-1.10
2015,11,18,07,34,-1.10
2015,11,18,07,35,-1.10
2015,11,18,07,36,-1.10
2015,11,18,07,37,-1.00
2015,11,18,07,38,-1.00
2015,11,18,07,39,-1.00
2015,11,18,07,40,-1.00
2015,11,18,07,41,-1.00
2015,11,18,07,42,-1.00
2015,11,18,07,43,-1.00
2015,11,18,07,44,-0.90
2015,11,18,07,45,-0.90
2015,11,18,07,46,-0.90
2015,11,18,07,47,-0.90
2015,11,18,07,48,-0.90
2015,11,18,07,49,-0.90
2015,11,18,07,50,-0.80
2015,11,18,07,51,-0.80
2015,11,18,07,52,-0.80
2015,11,18,07,53,-0.80
2015,11,18,07,54,-0.70
2015,11,18,07,55,-0.70
2015,11,18,07,56,-0.70
2015,11,18,07,57,-0.70
2015,11,18,07,58,-0.70
2015,11,18,07,59,-0.60
2015,11,18,08,00,-0.60
2015,11,18,08,01,-0.60
2015,11,18,08,02,-0.60
2015,11,18,08,03,-0.60
2015,11,18,08,04,-0.60
2015,11,18,08,05,-0.50
2015,11,18,08,06,-0.50
2015,11,18,08,07,-0.50
2015,11,18,08,08,-0.50
2015,11,18,08,09,-0.50
2015,11,18,08,10,-0.50
2015,11,18,08,11,-0.50
2015,11,18,08,12,-0.40
2015,11,18,08,13,-0.40
2015,11,18,08,14,-0.40
2015,11,18,08,15,-0.40
2015,11,18,08,16,-0.40
2015,11,18,08,17,-0.40
2015,11,18,08,18,-0.30
2015,11,18,08,19,-0.30
2015,11,18,08,20,-0.30
2015,11,18,08,21,-0.30
2015,11,18,08,22,-0.20
2015,11,18,08,23,-0.20
2015,11,18,08,24,-0.20
2015,11,18,08,25,-0.10
2015,11,18,08,26,-0.10
2015,11,18,08,27,-0.10
2015,11,18,08,28,0.00
2015,11,18,08,29,0.00
2015,11,18,08,30,0.00
2015,11,18,08,31,0.10
2015,11,18,08,32,0.10
2015,11,18,08,33,0.10
2015,11,18,08,34,0.10
2015,11,18,08,35,0.20
2015,11,18,08,36,0.20
2015,11,18,08,37,0.20
2015,11,18,08,38,0.20
2015,11,18,08,39,0.30
2015,11,18,08,40,0.30
2015,11,18,08,41,0.30
2015,11,18,08,42,0.30
2015,11,18,08,43,0.30
2015,11,18,08,44,0.40
2015,11,18,08,45,0.40
2015,11,18,08,46,0.40
2015,11,18,08,47,0.40
2015,11,18,08,48,0.50
2015,11,18,08,49,0.50
2015,11,18,08,50,0.50
2015,11,18,08,51,0.60
2015,11,18,08,52,0.60
2015,11,18,08,53,0.70
2015,11,18,08,54,0.70
2015,11,18,08,55,0.70
2015,11,18,08,56,0.80
2015,11,18,08,57,0.80
2015,11,18,08,58,0.80
2015,11,18,08,59,0.90
2015,11,18,09,00,0.90
2015,11,18,09,01,1.00
2015,11,18,09,02,1.00
2015,11,18,09,03,1.00
2015,11,18,09,04,1.10
2015,11,18,09,05,1.10
2015,11,18,09,06,1.20
2015,11,18,09,07,1.20
2015,11,18,09,08,1.20
2015,11,18,09,09,1.30
2015,11,18,09,10,1.30
2015,11,18,09,11,1.30
2015,11,18,09,12,1.30
2015,11,18,09,13,1.40
2015,11,18,09,14,1.50
2015,11,18,09,15,1.50
2015,11,18,09,16,1.60
2015,11,18,09,17,1.60
2015,11,18,09,18,1.70
2015,11,18,09,19,1.70
2015,11,18,09,20,1.80
2015,11,18,09,21,1.80
2015,11,18,09,22,1.80
2015,11,18,09,23,1.90
2015,11,18,09,24,1.90
2015,11,18,09,25,2.00
2015,11,18,09,26,2.00
2015,11,18,09,27,2.00
2015,11,18,09,28,2.10
2015,11,18,09,29,2.10
2015,11,18,09,30,2.20
2015,11,18,09,31,2.20
2015,11,18,09,32,2.30
2015,11,18,09,33,2.30
2015,11,18,09,34,2.30
2015,11,18,09,35,2.30
2015,11,18,09,36,2.40
2015,11,18,09,37,2.40
2015,11,18,09,38,2.50
2015,11,18,09,39,2.60
2015,11,18,09,40,2.60
2015,11,18,09,41,2.70
2015,11,18,09,42,2.70
2015,11,18,09,43,2.70
2015,11,18,09,44,2.80
2015,11,18,09,45,2.80
2015,11,18,09,46,2.90
2015,11,18,09,47,2.90
2015,11,18,09,48,2.90
2015,11,18,09,49,3.00
2015,11,18,09,50,3.00
2015,11,18,09,51,3.00
2015,11,18,09,52,3.10
2015,11,18,09,53,3.20
2015,11,18,09,54,3.20
2015,11,18,09,55,3.30
2015,11,18,09,56,3.30
2015,11,18,09,57,3.40
2015,11,18,09,58,3.40
2015,11,18,09,59,3.50
2015,11,18,10,00,3.50
2015,11,18,10,01,3.60
2015,11,18,10,02,3.70
2015,11,18,10,03,3.70
2015,11,18,10,04,3.80
2015,11,18,10,05,3.90
2015,11,18,10,06,3.90
2015,11,18,10,07,4.00
2015,11,18,10,08,4.10
2015,11,18,10,09,4.10
2015,11,18,10,10,4.20
2015,11,18,10,11,4.30
2015,11,18,10,12,4.30
2015,11,18,10,13,4.40
2015,11,18,10,14,4.40
2015,11,18,10,15,4.40
2015,11,18,10,16,4.50
2015,11,18,10,17,4.60
2015,11,18,10,18,4.60
2015,11,18,10,19,4.60
2015,11,18,10,20,4.70
2015,11,18,10,21,4.80
2015,11,18,10,22,4.80
2015,11,18,10,23,4.90
2015,11,18,10,24,4.90
2015,11,18,10,25,4.90
2015,11,18,10,26,5.00
2015,11,18,10,27,5.00
2015,11,18,10,28,5.00
2015,11,18,10,29,5.10
2015,11,18,10,30,5.10
2015,11,18,10,31,5.10
2015,11,18,10,32,5.20
2015,11,18,10,33,5.20
2015,11,18,10,34,5.20
2015,11,18,10,35,5.20
2015,11,18,10,36,5.20
2015,11,18,10,37,5.20
2015,11,18,10,38,5.30
2015,11,18,10,39,5.30
2015,11,18,10,40,5.30
2015,11,18,10,41,5.30
2015,11,18,10,42,5.40
2015,11,18,10,43,5.40
2015,11,18,10,44,5.40
2015,11,18,10,45,5.40
2015,11,18,10,46,5.40
2015,11,18,10,47,5.50
2015,11,18,10,48,5.50
2015,11,18,10,49,5.50
2015,11,18,10,50,5.50
2015,11,18,10,51,5.60
2015,11,18,10,52,5.60
2015,11,18,10,53,5.60
2015,11,18,10,54,5.70
2015,11,18,10,55,5.70
2015,11,18,10,56,5.70
2015,11,18,10,57,5.70
2015,11,18,10,58,5.70
2015,11,18,10,59,5.70
2015,11,18,11,00,5.70
2015,11,18,11,01,5.70
2015,11,18,11,02,5.70
2015,11,18,11,03,5.70
2015,11,18,11,04,5.70
2015,11,18,11,05,5.70
2015,11,18,11,06,5.80
2015,11,18,11,07,5.80
2015,11,18,11,08,5.80
2015,11,18,11,09,5.80
2015,11,18,11,10,5.80
2015,11,18,11,11,5.80
2015,11,18,11,12,5.80
2015,11,18,11,13,5.80
2015,11,18,11,14,5.80
2015,11,18,11,15,5.80
2015,11,18,11,16,5.80
2015,11,18,11,17,5.90
2015,11,18,11,18,5.90
2015,11,18,11,19,5.90
2015,11,18,11,20,5.90
2015,11,18,11,21,5.90
2015,11,18,11,22,6.00
2015,11,18,11,23,6.00
2015,11,18,11,24,6.00
2015,11,18,11,25,6.10
2015,11,18,11,26,6.10
2015,11,18,11,27,6.10
2015,11,18,11,28,6.20
2015,11,18,11,29,6.20
2015,11,18,11,30,6.20
2015,11,18,11,31,6.20
2015,11,18,11,32,6.30
2015,11,18,11,33,6.30
2015,11,18,11,34,6.30
2015,11,18,11,35,6.30
2015,11,18,11,36,6.30
2015,11,18,11,37,6.30
2015,11,18,11,38,6.40
2015,11,18,11,39,6.40
2015,11,18,11,40,6.40
2015,11,18,11,41,6.40
2015,11,18,11,42,6.40
2015,11,18,11,43,6.40
2015,11,18,11,44,6.40
2015,11,18,11,45,6.40
2015,11,18,11,46,6.40
2015,11,18,11,47,6.40
2015,11,18,11,48,6.40
2015,11,18,11,49,6.40
2015,11,18,11,50,6.40
2015,11,18,11,51,6.40
2015,11,18,11,52,6.40
2015,11,18,11,53,6.40
2015,11,18,11,54,6.40
2015,11,18,11,55,6.40
2015,11,18,11,56,6.40
2015,11,18,11,57,6.40
2015,11,18,11,58,6.40
2015,11,18,11,59,6.40
2015,11,18,12,00,6.40
2015,11,18,12,01,6.50
2015,11,18,12,02,6.50
2015,11,18,12,03,6.50
2015,11,18,12,04,6.50
2015,11,18,12,05,6.60
2015,11,18,12,06,6.50
2015,11,18,12,07,6.60
2015,11,18,12,08,6.50
2015,11,18,12,09,6.50
2015,11,18,12,10,6.50
2015,11,18,12,11,6.60
2015,11,18,12,12,6.60
2015,11,18,12,13,6.60
2015,11,18,12,14,6.60
2015,11,18,12,15,6.60
2015,11,18,12,16,6.70
2015,11,18,12,17,6.70
2015,11,18,12,18,6.70
2015,11,18,12,19,6.70
2015,11,18,12,20,6.70
2015,11,18,12,21,6.70
2015,11,18,12,22,6.80
2015,11,18,12,23,6.80
2015,11,18,12,24,6.80
2015,11,18,12,25,6.80
2015,11,18,12,26,6.80
2015,11,18,12,27,6.80
2015,11,18,12,28,6.80
2015,11,18,12,29,6.80
2015,11,18,12,30,6.80
2015,11,18,12,31,6.80
2015,11,18,12,32,6.80
2015,11,18,12,33,6.80
2015,11,18,12,34,6.80
2015,11,18,12,35,6.80
2015,11,18,12,36,6.80
2015,11,18,12,37,6.80
2015,11,18,12,38,6.80
2015,11,18,12,39,6.80
2015,11,18,12,40,6.70
2015,11,18,12,41,6.70
2015,11,18,12,42,6.70
2015,11,18,12,43,6.70
2015,11,18,12,44,6.70
2015,11,18,12,45,6.70
2015,11,18,12,46,6.70
2015,11,18,12,47,6.70
2015,11,18,12,48,6.70
2015,11,18,12,49,6.60
2015,11,18,12,50,6.60
2015,11,18,12,51,6.60
2015,11,18,12,52,6.60
2015,11,18,12,53,6.60
2015,11,18,12,54,6.60
2015,11,18,12,55,6.60
2015,11,18,12,56,6.60
2015,11,18,12,57,6.50
2015,11,18,12,58,6.50
2015,11,18,12,59,6.50
2015,11,18,13,00,6.40
2015,11,18,13,01,6.40
2015,11,18,13,02,6.40
2015,11,18,13,03,6.40
2015,11,18,13,04,6.40
2015,11,18,13,05,6.40
2015,11,18,13,06,6.40
2015,11,18,13,07,6.40
2015,11,18,13,08,6.40
2015,11,18,13,09,6.40
2015,11,18,13,10,6.40
2015,11,18,13,11,6.40
2015,11,18,13,12,6.40
2015,11,18,13,13,6.40
2015,11,18,13,14,6.40
2015,11,18,13,15,6.40
2015,11,18,13,16,6.40
2015,11,18,13,17,6.40
2015,11,18,13,18,6.40
2015,11,18,13,19,6.40
2015,11,18,13,20,6.40
2015,11,18,13,21,6.40
2015,11,18,13,22,6.40
2015,11,18,13,23,6.40
2015,11,18,13,24,6.40
2015,11,18,13,25,6.40
2015,11,18,13,26,6.40
2015,11,18,13,27,6.40
2015,11,18,13,28,6.40
2015,11,18,13,29,6.40
2015,11,18,13,30,6.40
2015,11,18,13,31,6.40
2015,11,18,13,32,6.40
2015,11,18,13,33,6.40
2015,11,18,13,34,6.40
2015,11,18,13,35,6.40
2015,11,18,13,36,6.40
2015,11,18,13,37,6.40
2015,11,18,13,38,6.40
2015,11,18,13,39,6.40
2015,11,18,13,40,6.40
2015,11,18,13,41,6.40
2015,11,18,13,42,6.40
2015,11,18,13,43,6.40
2015,11,18,13,44,6.40
2015,11,18,13,45,6.30
2015,11,18,13,46,6.30
2015,11,18,13,47,6.30
2015,11,18,13,48,6.30
2015,11,18,13,49,6.30
2015,11,18,13,50,6.30
2015,11,18,13,51,6.30
2015,11,18,13,52,6.30
2015,11,18,13,53,6.30
2015,11,18,13,54,6.30
2015,11,18,13,55,6.30
2015,11,18,13,56,6.30
2015,11,18,13,57,6.30
2015,11,18,13,58,6.30
2015,11,18,13,59,6.30
2015,11,18,14,00,6.30
2015,11,18,14,01,6.30
2015,11,18,14,02,6.30
2015,11,18,14,03,6.30
2015,11,18,14,04,6.30
2015,11,18,14,05,6.30
2015,11,18,14,06,6.30
2015,11,18,14,07,6.30
2015,11,18,14,08,6.30
2015,11,18,14,09,6.30
2015,11,18,14,10,6.30
2015,11,18,14,11,6.30
2015,11,18,14,12,6.30
2015,11,18,14,13,6.30
2015,11,18,14,14,6.30
2015,11,18,14,15,6.20
2015,11,18,14,16,6.20
2015,11,18,14,17,6.20
2015,11,18,14,18,6.20
2015,11,18,14,19,6.20
2015,11,18,14,20,6.20
2015,11,18,14,21,6.20
2015,11,18,14,22,6.20
2015,11,18,14,23,6.20
2015,11,18,14,24,6.20
2015,11,18,14,25,6.20
2015,11,18,14,26,6.20
2015,11,18,14,27,6.20
2015,11,18,14,28,6.20
2015,11,18,14,29,6.20
2015,11,18,14,30,6.20
2015,11,18,14,31,6.20
2015,11,18,14,32,6.20
2015,11,18,14,33,6.20
2015,11,18,14,34,6.20
2015,11,18,14,35,6.20
2015,11,18,14,36,6.20
2015,11,18,14,37,6.20
2015,11,18,14,38,6.20
2015,11,18,14,39,6.10
2015,11,18,14,40,6.10
2015,11,18,14,41,6.10
2015,11,18,14,42,6.10
2015,11,18,14,43,6.10
2015,11,18,14,44,6.10
2015,11,18,14,45,6.10
2015,11,18,14,46,6.10
2015,11,18,14,47,6.00
2015,11,18,14,48,6.00
2015,11,18,14,49,6.00
2015,11,18,14,50,6.00
2015,11,18,14,51,6.00
2015,11,18,14,52,6.00
2015,11,18,14,53,5.90
2015,11,18,14,54,5.90
2015,11,18,14,55,5.90
2015,11,18,14,56,5.90
2015,11,18,14,57,5.90
2015,11,18,14,58,5.90
2015,11,18,14,59,5.90
2015,11,18,15,00,5.90
2015,11,18,15,01,5.90
2015,11,18,15,02,5.80
2015,11,18,15,03,5.80
2015,11,18,15,04,5.80
2015,11,18,15,05,5.80
2015,11,18,15,06,5.80
2015,11,18,15,07,5.80
2015,11,18,15,08,5.80
2015,11,18,15,09,5.80
2015,11,18,15,10,5.80
2015,11,18,15,11,5.80
2015,11,18,15,12,5.80
2015,11,18,15,13,5.80
2015,11,18,15,14,5.80
2015,11,18,15,15,5.80
2015,11,18,15,16,5.70
2015,11,18,15,17,5.70
2015,11,18,15,18,5.70
2015,11,18,15,19,5.70
2015,11,18,15,20,5.70
2015,11,18,15,21,5.70
2015,11,18,15,22,5.70
2015,11,18,15,23,5.70
2015,11,18,15,24,5.70
2015,11,18,15,25,5.70
2015,11,18,15,26,5.70
2015,11,18,15,27,5.60
2015,11,18,15,28,5.60
2015,11,18,15,29,5.60
2015,11,18,15,30,5.60
2015,11,18,15,31,5.60
2015,11,18,15,32,5.60
2015,11,18,15,33,5.60
2015,11,18,15,34,5.60
2015,11,18,15,35,5.60
2015,11,18,15,36,5.60
2015,11,18,15,37,5.60
2015,11,18,15,38,5.60
2015,11,18,15,39,5.60
2015,11,18,15,40,5.60
2015,11,18,15,41,5.60
2015,11,18,15,42,5.60
2015,11,18,15,43,5.60
2015,11,18,15,44,5.60
2015,11,18,15,45,5.60
2015,11,18,15,46,5.60
2015,11,18,15,47,5.60
2015,11,18,15,48,5.60
2015,11,18,15,49,5.60
2015,11,18,15,50,5.60
2015,11,18,15,51,5.60
2015,11,18,15,52,5.60
2015,11,18,15,53,5.60
2015,11,18,15,54,5.60
2015,11,18,15,55,5.60
2015,11,18,15,56,5.60
2015,11,18,15,57,5.60
2015,11,18,15,58,5.60
2015,11,18,15,59,5.60
2015,11,18,16,00,5.60
2015,11,18,16,01,5.60
2015,11,18,16,02,5.60
2015,11,18,16,03,5.60
2015,11,18,16,04,5.60
2015,11,18,16,05,5.60
2015,11,18,16,06,5.60
2015,11,18,16,07,5.60
2015,11,18,16,08,5.50
2015,11,18,16,09,5.50
2015,11,18,16,10,5.50
2015,11,18,16,11,5.40
2015,11,18,16,12,5.40
2015,11,18,16,13,5.40
2015,11,18,16,14,5.30
2015,11,18,16,15,5.30
2015,11,18,16,16,5.30
2015,11,18,16,17,5.30
2015,11,18,16,18,5.30
2015,11,18,16,19,5.30
2015,11,18,16,20,5.20
2015,11,18,16,21,5.20
2015,11,18,16,22,5.20
2015,11,18,16,23,5.20
2015,11,18,16,24,5.20
2015,11,18,16,25,5.10
2015,11,18,16,26,5.10
2015,11,18,16,27,5.10
2015,11,18,16,28,5.10
2015,11,18,16,29,5.00
2015,11,18,16,30,5.00
2015,11,18,16,31,4.90
2015,11,18,16,32,4.90
2015,11,18,16,33,4.90
2015,11,18,16,34,4.80
2015,11,18,16,35,4.80
2015,11,18,16,36,4.80
2015,11,18,16,37,4.80
2015,11,18,16,38,4.70
2015,11,18,16,39,4.70
2015,11,18,16,40,4.70
2015,11,18,16,41,4.70
2015,11,18,16,42,4.70
2015,11,18,16,43,4.60
2015,11,18,16,44,4.60
2015,11,18,16,45,4.60
2015,11,18,16,46,4.60
2015,11,18,16,47,4.60
2015,11,18,16,48,4.60
2015,11,18,16,49,4.50
2015,11,18,16,50,4.50
2015,11,18,16,51,4.50
2015,11,18,16,52,4.50
2015,11,18,16,53,4.40
2015,11,18,16,54,4.40
2015,11,18,16,55,4.40
2015,11,18,16,56,4.40
2015,11,18,16,57,4.40
2015,11,18,16,58,4.30
2015,11,18,16,59,4.30
2015,11,18,17,00,4.30
2015,11,18,17,01,4.30
2015,11,18,17,02,4.30
2015,11,18,17,03,4.30
2015,11,18,17,04,4.30
2015,11,18,17,05,4.30
2015,11,18,17,06,4.20
2015,11,18,17,07,4.20
2015,11,18,17,08,4.20
2015,11,18,17,09,4.20
2015,11,18,17,10,4.20
2015,11,18,17,11,4.20
2015,11,18,17,12,4.20
2015,11,18,17,13,4.20
2015,11,18,17,14,4.20
2015,11,18,17,15,4.10
2015,11,18,17,16,4.10
2015,11,18,17,17,4.10
2015,11,18,17,18,4.10
2015,11,18,17,19,4.10
2015,11,18,17,20,4.10
2015,11,18,17,21,4.10
2015,11,18,17,22,4.00
2015,11,18,17,23,4.00
2015,11,18,17,24,4.00
2015,11,18,17,25,4.00
2015,11,18,17,26,4.00
2015,11,18,17,27,4.00
2015,11,18,17,28,3.90
2015,11,18,17,29,3.90
2015,11,18,17,30,3.90
2015,11,18,17,31,3.90
2015,11,18,17,32,3.90
2015,11,18,17,33,3.90
2015,11,18,17,34,3.90
2015,11,18,17,35,3.90
2015,11,18,17,36,3.80
2015,11,18,17,37,3.80
2015,11,18,17,38,3.80
2015,11,18,17,39,3.80
2015,11,18,17,40,3.80
2015,11,18,17,41,3.80
2015,11,18,17,42,3.80
2015,11,18,17,43,3.80
2015,11,18,17,44,3.80
2015,11,18,17,45,3.80
2015,11,18,17,46,3.80
2015,11,18,17,47,3.80
2015,11,18,17,48,3.80
2015,11,18,17,49,3.80
2015,11,18,17,50,3.80
2015,11,18,17,51,3.80
2015,11,18,17,52,3.80
2015,11,18,17,53,3.80
2015,11,18,17,54,3.80
2015,11,18,17,55,3.80
2015,11,18,17,56,3.80
2015,11,18,17,57,3.80
2015,11,18,17,58,3.80
2015,11,18,17,59,3.80
2015,11,18,18,00,3.80
2015,11,18,18,01,3.80
2015,11,18,18,02,3.80
2015,11,18,18,03,3.80
2015,11,18,18,04,3.80
2015,11,18,18,05,3.70
2015,11,18,18,06,3.70
2015,11,18,18,07,3.70
2015,11,18,18,08,3.70
2015,11,18,18,09,3.70
2015,11,18,18,10,3.70
2015,11,18,18,11,3.70
2015,11,18,18,12,3.70
2015,11,18,18,13,3.70
2015,11,18,18,14,3.70
2015,11,18,18,15,3.70
2015,11,18,18,16,3.70
2015,11,18,18,17,3.70
2015,11,18,18,18,3.70
2015,11,18,18,19,3.70
2015,11,18,18,20,3.70
2015,11,18,18,21,3.70
2015,11,18,18,22,3.70
2015,11,18,18,23,3.70
2015,11,18,18,24,3.70
2015,11,18,18,25,3.60
2015,11,18,18,26,3.60
2015,11,18,18,27,3.60
2015,11,18,18,28,3.60
2015,11,18,18,29,3.60
2015,11,18,18,30,3.60
2015,11,18,18,31,3.60
2015,11,18,18,32,3.60
2015,11,18,18,33,3.60
2015,11,18,18,34,3.60
2015,11,18,18,35,3.60
2015,11,18,18,36,3.60
2015,11,18,18,37,3.60
2015,11,18,18,38,3.60
2015,11,18,18,39,3.60
2015,11,18,18,40,3.60
2015,11,18,18,41,3.60
2015,11,18,18,42,3.50
2015,11,18,18,43,3.50
2015,11,18,18,44,3.50
2015,11,18,18,45,3.50
2015,11,18,18,46,3.50
2015,11,18,18,47,3.50
2015,11,18,18,48,3.50
2015,11,18,18,49,3.50
2015,11,18,18,50,3.50
2015,11,18,18,51,3.50
2015,11,18,18,52,3.50
2015,11,18,18,53,3.50
2015,11,18,18,54,3.40
2015,11,18,18,55,3.40
2015,11,18,18,56,3.40
2015,11,18,18,57,3.40
2015,11,18,18,58,3.40
2015,11,18,18,59,3.40
2015,11,18,19,00,3.40
2015,11,18,19,01,3.40
2015,11,18,19,02,3.40
2015,11,18,19,03,3.40
2015,11,18,19,04,3.40
2015,11,18,19,05,3.40
2015,11,18,19,06,3.40
2015,11,18,19,07,3.40
2015,11,18,19,08,3.40
2015,11,18,19,09,3.40
2015,11,18,19,10,3.40
2015,11,18,19,11,3.40
2015,11,18,19,12,3.40
2015,11,18,19,13,3.40
2015,11,18,19,14,3.40
2015,11,18,19,15,3.30
2015,11,18,19,16,3.30
2015,11,18,19,17,3.30